EN

Hourly Weather Topchyno

Today, 13 May, Thursday

Time Temperature Precipitation Wind Pressure Humidity
00:00 +12°C° 0 mm 5 mps 720 mmHg 88%
01:00 +12°C° 0 mm 4 mps 720 mmHg 91%
02:00 +12°C° 0 mm 4 mps 719 mmHg 93%
03:00 +12°C° 0 mm 3 mps 719 mmHg 94%
04:00 +12°C° 0 mm 4 mps 718 mmHg 96%
05:00 +11°C° 1.8 mm 3 mps 718 mmHg 100%
06:00 +11°C° 3.3 mm 3 mps 718 mmHg 100%
07:00 +11°C° 7.3 mm 4 mps 719 mmHg 100%
08:00 +11°C° 6.9 mm 3 mps 719 mmHg 100%
09:00 +13°C° 1.1 mm 4 mps 718 mmHg 97%
10:00 +14°C° 0 mm 4 mps 719 mmHg 94%
11:00 +15°C° 0 mm 4 mps 719 mmHg 93%
12:00 +15°C° 0 mm 5 mps 718 mmHg 92%
13:00 +15°C° 0 mm 5 mps 718 mmHg 92%
14:00 +15°C° 0.8 mm 5 mps 718 mmHg 97%
15:00 +15°C° 0.2 mm 4 mps 717 mmHg 93%
16:00 +17°C° 0 mm 3 mps 717 mmHg 88%
17:00 +17°C° 0 mm 5 mps 717 mmHg 87%
18:00 +16°C° 0 mm 5 mps 717 mmHg 91%
19:00 +16°C° 0 mm 3 mps 717 mmHg 93%
20:00 +15°C° 0 mm 2 mps 717 mmHg 96%
21:00 +15°C° 0 mm 2 mps 718 mmHg 97%
22:00 +14°C° 0 mm 2 mps 718 mmHg 98%
23:00 +14°C° 0 mm 2 mps 718 mmHg 99%

Tomorrow, 14 May, Friday

Time Temperature Precipitation Wind Pressure Humidity
00:00 +13°C° 0 mm 2 mps 718 mmHg 100%
01:00 +13°C° 0 mm 2 mps 718 mmHg 100%
02:00 +13°C° 0 mm 2 mps 718 mmHg 100%
03:00 +12°C° 0 mm 1 mps 718 mmHg 100%
04:00 +13°C° 0 mm 1 mps 718 mmHg 100%
05:00 +12°C° 0 mm 2 mps 718 mmHg 100%
06:00 +12°C° 0 mm 2 mps 718 mmHg 100%
07:00 +13°C° 0 mm 2 mps 719 mmHg 97%
08:00 +11°C° 0 mm 4 mps 720 mmHg 95%
09:00 +11°C° 0 mm 3 mps 720 mmHg 94%
10:00 +13°C° 0 mm 2 mps 720 mmHg 93%
11:00 +14°C° 0 mm 1 mps 720 mmHg 91%
12:00 +14°C° 0.6 mm 4 mps 720 mmHg 93%
13:00 +15°C° 0 mm 5 mps 720 mmHg 87%
14:00 +14°C° 1.4 mm 4 mps 720 mmHg 95%
15:00 +15°C° 0.5 mm 4 mps 720 mmHg 88%
16:00 +14°C° 0 mm 6 mps 720 mmHg 89%
17:00 +14°C° 0 mm 5 mps 720 mmHg 91%
18:00 +14°C° 0 mm 4 mps 720 mmHg 90%
19:00 +14°C° 0 mm 4 mps 720 mmHg 93%
20:00 +13°C° 0 mm 3 mps 721 mmHg 95%
21:00 +13°C° 0 mm 4 mps 721 mmHg 97%
22:00 +12°C° 0 mm 4 mps 721 mmHg 98%
23:00 +12°C° 0 mm 3 mps 721 mmHg 99%

Day after tomorrow, 15 May, Saturday

Time Temperature Precipitation Wind Pressure Humidity
00:00 +12°C° 0 mm 3 mps 721 mmHg 99%
01:00 +11°C° 0 mm 3 mps 721 mmHg 100%
02:00 +11°C° 0 mm 3 mps 722 mmHg 100%
03:00 +12°C° 0 mm 2 mps 721 mmHg 100%
04:00 +12°C° 0 mm 1 mps 722 mmHg 100%
05:00 +12°C° 0 mm 1 mps 722 mmHg 100%
06:00 +12°C° 0 mm 1 mps 722 mmHg 100%
07:00 +11°C° 0 mm 3 mps 722 mmHg 100%
08:00 +12°C° 0 mm 2 mps 723 mmHg 99%
09:00 +14°C° 0 mm 2 mps 723 mmHg 97%
10:00 +15°C° 0 mm 2 mps 723 mmHg 94%
11:00 +15°C° 0 mm 2 mps 723 mmHg 91%
12:00 +16°C° 0.1 mm 2 mps 723 mmHg 92%
13:00 +17°C° 0.4 mm 2 mps 723 mmHg 91%
14:00 +18°C° 0.2 mm 1 mps 722 mmHg 89%
15:00 +17°C° 0.7 mm 2 mps 722 mmHg 95%
16:00 +18°C° 0.9 mm 1 mps 722 mmHg 89%
17:00 +18°C° 0.2 mm 1 mps 722 mmHg 91%
18:00 +18°C° 0.2 mm 1 mps 722 mmHg 94%
19:00 +16°C° 0.5 mm 2 mps 722 mmHg 96%
20:00 +16°C° 0.4 mm 2 mps 722 mmHg 96%
21:00 +16°C° 0.1 mm 1 mps 722 mmHg 91%
22:00 +14°C° 0 mm 0 mps 722 mmHg 97%
23:00 +15°C° 0 mm 1 mps 722 mmHg 95%

16 May, Sunday

Time Temperature Precipitation Wind Pressure Humidity
00:00 +15°C° 0 mm 1 mps 722 mmHg 93%
01:00 +14°C° 0 mm 1 mps 722 mmHg 92%
02:00 +14°C° 0 mm 1 mps 722 mmHg 91%
03:00 +13°C° 0 mm 1 mps 722 mmHg 91%
04:00 +13°C° 0 mm 2 mps 721 mmHg 93%
05:00 +12°C° 0 mm 2 mps 721 mmHg 95%
06:00 +12°C° 0 mm 2 mps 721 mmHg 96%
07:00 +13°C° 0 mm 2 mps 722 mmHg 98%
08:00 +15°C° 0 mm 1 mps 722 mmHg 95%
09:00 +16°C° 0 mm 2 mps 722 mmHg 91%
10:00 +18°C° 0 mm 2 mps 722 mmHg 89%
11:00 +19°C° 0 mm 3 mps 722 mmHg 88%
12:00 +18°C° 0.2 mm 3 mps 721 mmHg 89%
13:00 +18°C° 0.4 mm 2 mps 721 mmHg 92%
14:00 +17°C° 1.7 mm 3 mps 720 mmHg 92%
15:00 +20°C° 0.1 mm 1 mps 720 mmHg 86%
16:00 +18°C° 0.8 mm 4 mps 719 mmHg 89%
17:00 +16°C° 1.9 mm 2 mps 720 mmHg 93%
18:00 +18°C° 0.1 mm 1 mps 719 mmHg 92%
19:00 +18°C° 0.1 mm 1 mps 719 mmHg 96%
20:00 +16°C° 2.8 mm 2 mps 719 mmHg 95%
21:00 +15°C° 0 mm 1 mps 719 mmHg 93%
22:00 +15°C° 0 mm 1 mps 719 mmHg 90%
23:00 +14°C° 0 mm 0 mps 720 mmHg 89%

17 May, Monday

Time Temperature Precipitation Wind Pressure Humidity
00:00 +13°C° 0 mm 0 mps 720 mmHg 94%
01:00 +13°C° 0 mm 1 mps 719 mmHg 100%
02:00 +13°C° 0 mm 1 mps 720 mmHg 99%
03:00 +13°C° 0 mm 1 mps 720 mmHg 100%
04:00 +13°C° 0 mm 1 mps 720 mmHg 100%
05:00 +12°C° 0 mm 1 mps 720 mmHg 100%
06:00 +13°C° 0 mm 1 mps 720 mmHg 100%
07:00 +13°C° 0 mm 2 mps 721 mmHg 100%
08:00 +14°C° 0 mm 2 mps 721 mmHg 100%
09:00 +14°C° 0 mm 2 mps 721 mmHg 98%
10:00 +13°C° 0 mm 3 mps 721 mmHg 99%
11:00 +14°C° 0 mm 3 mps 722 mmHg 97%
12:00 +14°C° 0 mm 4 mps 722 mmHg 95%
13:00 +16°C° 0.1 mm 3 mps 722 mmHg 93%
14:00 +17°C° 0 mm 2 mps 722 mmHg 88%
15:00 +18°C° 0 mm 1 mps 722 mmHg 83%
16:00 +19°C° 0 mm 1 mps 721 mmHg 81%
17:00 +19°C° 0 mm 1 mps 721 mmHg 83%
18:00 +19°C° 0 mm 1 mps 721 mmHg 86%
19:00 +17°C° 0 mm 2 mps 721 mmHg 89%
20:00 +18°C° 0 mm 1 mps 721 mmHg 94%
21:00 +16°C° 0 mm 2 mps 721 mmHg 93%
22:00 +16°C° 0 mm 2 mps 720 mmHg 93%
23:00 +14°C° 0 mm 3 mps 720 mmHg 95%

18 May, Tuesday

Time Temperature Precipitation Wind Pressure Humidity
00:00 +14°C° 0 mm 3 mps 720 mmHg 94%
01:00 +14°C° 0 mm 3 mps 719 mmHg 88%
02:00 +14°C° 0 mm 4 mps 719 mmHg 87%
03:00 +13°C° 1.1 mm 3 mps 718 mmHg 97%
04:00 +13°C° 0.8 mm 5 mps 718 mmHg 98%
05:00 +14°C° 0 mm 4 mps 717 mmHg 95%
06:00 +14°C° 0 mm 5 mps 716 mmHg 95%
07:00 +14°C° 0 mm 4 mps 717 mmHg 96%
08:00 +17°C° 0 mm 4 mps 717 mmHg 93%
09:00 +17°C° 0 mm 4 mps 718 mmHg 85%
10:00 +18°C° 0 mm 3 mps 718 mmHg 83%
11:00 +16°C° 0 mm 5 mps 717 mmHg 84%
12:00 +16°C° 0 mm 6 mps 718 mmHg 84%
13:00 +14°C° 0 mm 6 mps 718 mmHg 86%
14:00 +13°C° 0 mm 5 mps 718 mmHg 88%
15:00 +11°C° 0 mm 6 mps 718 mmHg 94%
16:00 +11°C° 0.1 mm 6 mps 718 mmHg 96%
17:00 +11°C° 0 mm 6 mps 718 mmHg 93%
18:00 +12°C° 0 mm 5 mps 718 mmHg 96%
19:00 +10°C° 0 mm 5 mps 719 mmHg 98%
20:00 +10°C° 0.1 mm 6 mps 719 mmHg 98%
21:00 +9°C° 0 mm 7 mps 719 mmHg 99%
22:00 +9°C° 0.1 mm 7 mps 720 mmHg 98%
23:00 +9°C° 0.3 mm 7 mps 721 mmHg 100%
Show more

We Need Your Consent

Meteoprog and our Service Providers may store and access personal data such as cookies, device identifiers or other similar technologies on your device and process such data to personalise content and ads, as well as provide social media features and to analyse the traffic.

  • Store and/or access information on your device

    Cookies, device identifiers or other information can be stored or accessed on your device for the purposes indicated above.

  • Personalised ads and content, ad and content measurement, audience insights, and products development

    Ads and content can be personalised based on a profile. More data can be added to better personalise ads and content. Ad and content performance can be measured. Insights about the audience who saw the ads and content can be derived. Such data can be used to develop or improve user’s experience, systems and software.

By clicking ‘I Agree’ you will allow the use of indicated cookies, device identifiers, web beacons or other similar technologies. Your settings can be changed in the browser on your device.

For certain purposes, legitimate interests may be relied on, rather than consent. You can read more about this in our Privacy and Cookie Policy.